227  
ASUS41 KBTV 040530  
RWRBTV  
VERMONT REGIONAL WEATHER ROUNDUP  
NATIONAL WEATHER SERVICE BURLINGTON VT  
100 AM EDT THU JUN 04 2020  
 
NOTE: "FAIR" INDICATES FEW OR NO CLOUDS BELOW 12,000 FEET WITH NO  
SIGNIFICANT WEATHER AND/OR S TO VISIBILITY
.  
 
* THESE REPORTS ARE NOT UNDER NWS QUALITY CONTROL AND/OR DO NOT  
REPORT WEATHER SUCH AS PRECIPITATION AND FOG.
 
 
VTZ001>019-040600-  
_____VERMONT_____  
 
 
CITY SKY/WX TMP DP RH WIND PRES REMARKS
 
BURLINGTON NOT AVBL  
MONTPELIER CLOUDY 55 53 93 S3 29.72R  
MORRISVILLE CLOUDY 57 54 89 CALM 29.68R  
ST. JOHNSBURY* N/A 54 53 97 MISG 29.66R  
LYNDONVILLE* CLOUDY 55 53 95 CALM 29.69S  
MIDDLEBURY* CLOUDY 52 52 99 CALM 29.70R  
RUTLAND* MOCLDY 56 56 100 SE6 29.70R  
SPRINGFIELD FOG 56 55 97 CALM 29.70R VSB 1/4  
HIGHGATE* N/A 57 56 95 CALM 29.68R FOG  
NEWPORT* CLOUDY 54 54 100 CALM 29.67R  
BENNINGTON CLEAR 62 57 83 SW6 29.71R  
ISLAND POND* N/A 52 N/A N/A CALM N/A  
GALLUP MILLS* N/A 48 N/A N/A MISG N/A  
LAKE EDEN* N/A 55 N/A N/A SW2 N/A  
MT. MANSFIELD* N/A 52 N/A N/A W30 N/A  
 
_____LAKE CHAMPLAIN_____  
 
 
CITY SKY/WX TMP DP RH WIND PRES REMARKS
 
BURTON ISLAND* N/A 57 55 94 S5 N/A  
 

 
 
NYZ007-026>031-035-052-083-087-040600-  
_____NORTHERN NEW YORK_____  
 
 
CITY SKY/WX TMP DP RH WIND PRES REMARKS
 
PLATTSBURGH FOG 50 50 100 CALM 29.67R VSB 1/2  
SARANAC LAKE PTCLDY 55 53 93 SW5 29.71R  
MASSENA FOG 49 48 97 SW3 29.70S VSB 3/4  
OGDENSBURG* FOG 59 59 100 SW3 29.69R VSB<1/4  
POTSDAM* CLOUDY 55 55 100 SW6 29.70R VSB 0  
WATERTOWN FOG 52 51 97 CALM 29.72R VSB<1/4  
FT DRUM FOG 54 54 100 SW3 29.72R VSB 1/2  
ALBANY PTCLDY 66 59 78 SW8 29.70R  
GLENS FALLS PTCLDY 54 53 97 NW3 29.70R FOG  
 

 
NHZ002-005-011-040600-  
_____NEW HAMPSHIRE_____  
 
 
CITY SKY/WX TMP DP RH WIND PRES REMARKS
 
LEBANON CLEAR 53 50 89 S3 29.68R FOG  
KEENE FOG 57 57 100 CALM 29.70R VSB 1/4  
MT WASHINGTON LGT RAIN 41 41 100 W53G68 N/A VSB 0 WCI 27  
PLYMOUTH MOCLDY 54 52 95 CALM 29.68R  
WHITEFIELD CLOUDY 55 52 89 SW3 29.68R  
 

 
 
_____REGIONAL QUEBEC LOCATIONS_____  
 
 
CITY SKY/WX TMP DP RH WIND PRES REMARKS
 
MONTREAL PTCLDY 55 52 88 W3 29.65R  
QUEBEC CITY PTCLDY 52 52 100 SW9 29.59R  
SHERBROOKE CLOUDY 54 54 100 CALM 29.65R FOG  
 
_____REGIONAL ONTARIO LOCATIONS_____  
 
 
CITY SKY/WX TMP DP RH WIND PRES REMARKS
 
OTTAWA PTCLDY 52 52 100 W8 29.69R  
 
______KEY______  
VSB - VISIBILITY IN MILES  
WCI - WIND CHILL INDEX  
HX - HEAT INDEX  

 
NNNN  
 
 
CLICK HERE TO GO TO PREVIOUS BULLETINS.

The Nexlab VT Page
The Nexlab NY Page Main Text Page